GW2644 Weather Reports


Display with metric or nautical units.
time (UTC)temp
F
wind
direction
speed
MPH
gust
MPH
rain 1hr
in
rain 24hr
in
rain mn
in
humidity
%
barometer
mb
20260505234958 68 250 0.0 5.0 0.00 0.06 0.06 51 1018.1
20260505234456 67 247 6.0 8.0 0.00 0.06 0.06 51 1018.1
20260505233952 69 281 3.0 8.0 0.00 0.06 0.06 50 1018.2
20260505233450 68 225 2.0 6.0 0.00 0.06 0.06 49 1018.0
20260505232947 68 241 3.0 5.0 0.00 0.06 0.06 49 1018.4
20260505232445 67 218 3.0 7.0 0.00 0.06 0.06 49 1017.9
20260505231942 68 338 3.0 7.0 0.00 0.06 0.06 50 1018.0
20260505231439 68 278 2.0 6.0 0.00 0.06 0.06 49 1018.0
20260505230938 67 274 3.0 4.0 0.00 0.06 0.06 50 1018.0
20260505230435 66 270 2.0 5.0 0.00 0.06 0.06 50 1017.9
20260505225931 68 243 2.0 10.0 0.00 0.06 0.06 50 1018.2
20260505225428 68 286 0.0 3.0 0.00 0.06 0.06 50 1018.2
20260505224924 69 263 3.0 6.0 0.00 0.06 0.06 48 1018.2
20260505224421 68 250 3.0 7.0 0.00 0.06 0.06 47 1018.2
20260505223918 69 242 4.0 4.0 0.00 0.06 0.06 46 1018.2
20260505223415 67 277 4.0 6.0 0.00 0.06 0.06 48 1018.3
20260505222912 66 290 0.0 3.0 0.00 0.06 0.06 50 1018.1
20260505222408 67 216 2.0 5.0 0.00 0.06 0.06 50 1018.3
20260505221904 67 248 3.0 5.0 0.00 0.06 0.06 51 1018.4
20260505221402 68 246 2.0 5.0 0.00 0.06 0.06 51 1018.2
20260505220858 68 203 0.0 5.0 0.00 0.06 0.06 50 1018.4
20260505220355 68 250 3.0 6.0 0.00 0.06 0.06 51 1018.4
20260505215853 68 260 3.0 6.0 0.00 0.06 0.06 51 1018.4
20260505215351 67 172 0.0 3.0 0.00 0.06 0.06 52 1018.5
20260505214849 68 225 3.0 5.0 0.00 0.06 0.06 50 1018.4
20260505214346 69 268 9.0 9.0 0.00 0.06 0.06 50 1018.3
20260505213843 70 232 2.0 3.0 0.00 0.06 0.06 49 1018.4
20260505213341 68 210 2.0 6.0 0.00 0.06 0.06 49 1018.5
20260505212837 69 188 0.0 8.0 0.00 0.06 0.06 48 1018.6
20260505212334 68 260 2.0 4.0 0.00 0.06 0.06 50 1018.7
20260505211830 68 225 3.0 6.0 0.00 0.06 0.06 50 1018.7
20260505211328 68 201 2.0 9.0 0.00 0.06 0.06 51 1018.6
20260505210824 67 232 4.0 5.0 0.00 0.06 0.06 53 1018.7
20260505210321 65 219 3.0 5.0 0.00 0.06 0.06 55 1018.8
20260505205818 68 225 2.0 5.0 0.00 0.06 0.06 54 1018.7
20260505205316 68 270 2.0 5.0 0.00 0.06 0.06 55 1018.7
20260505204812 69 231 2.0 10.0 0.00 0.06 0.06 54 1018.8
20260505204311 67 229 0.0 7.0 0.00 0.06 0.06 56 1018.7
20260505203808 67 248 2.0 5.0 0.00 0.06 0.06 56 1018.7
20260505203304 68 265 3.0 5.0 0.00 0.06 0.06 55 1018.8
20260505202800 68 207 4.0 9.0 0.00 0.06 0.06 55 1018.8
20260505202256 70 199 2.0 5.0 0.00 0.06 0.06 54 1018.6
20260505201753 68 229 0.0 5.0 0.00 0.06 0.06 54 1018.7
20260505201251 70 248 3.0 5.0 0.00 0.06 0.06 54 1018.9
20260505200749 68 225 3.0 6.0 0.00 0.06 0.06 54 1018.7
20260505200246 68 266 4.0 6.0 0.00 0.06 0.06 54 1018.6
20260505195741 67 216 2.0 6.0 0.00 0.06 0.06 55 1018.9
20260505195239 66 216 2.0 3.0 0.00 0.06 0.06 49 1019.2
20260505194736 67 216 10.0 10.0 0.00 0.06 0.06 48 1018.9
20260505194232 67 282 2.0 6.0 0.00 0.06 0.06 49 1019.0
20260505193728 67 207 3.0 6.0 0.00 0.06 0.06 49 1019.1
20260505193226 67 251 1.0 5.0 0.00 0.06 0.06 50 1019.0
20260505192724 67 266 4.0 8.0 0.00 0.06 0.06 49 1018.9
20260505192221 65 105 0.0 6.0 0.00 0.06 0.06 50 1018.9
20260505191720 66 221 4.0 4.0 0.00 0.06 0.06 49 1019.1
20260505191218 65 356 2.0 5.0 0.00 0.06 0.06 52 1019.2
20260505190714 65 252 3.0 3.0 0.00 0.06 0.06 54 1019.2
20260505190213 65 291 1.0 6.0 0.00 0.06 0.06 53 1019.2
20260505185710 65 270 1.0 4.0 0.00 0.06 0.06 52 1019.3
20260505185207 64 283 1.0 8.0 0.00 0.06 0.06 56 1019.1
20260505184703 65 229 5.0 6.0 0.00 0.06 0.06 56 1019.3
20260505184200 65 270 5.0 8.0 0.00 0.06 0.06 54 1019.2
20260505183657 65 261 4.0 6.0 0.00 0.06 0.06 55 1019.1
20260505183155 64 250 2.0 4.0 0.00 0.06 0.06 55 1019.2
20260505182650 64 254 3.0 5.0 0.00 0.06 0.06 56 1019.2
20260505182148 64 261 3.0 5.0 0.00 0.06 0.06 56 1019.3
20260505181644 65 256 3.0 5.0 0.00 0.06 0.06 58 1019.0
20260505181142 64 265 0.0 4.0 0.00 0.06 0.06 54 1018.9
20260505180638 64 258 0.0 4.0 0.00 0.06 0.06 59 1019.0
20260505180135 64 214 0.0 5.0 0.00 0.06 0.06 58 1019.0
20260505175631 64 268 5.0 9.0 0.00 0.06 0.06 60 1019.0
20260505175128 64 318 0.0 5.0 0.00 0.06 0.06 61 1019.0
20260505174624 63 334 1.0 7.0 0.00 0.06 0.06 63 1019.0
20260505174120 64 270 2.0 5.0 0.00 0.06 0.06 62 1018.8
20260505173617 65 250 0.0 7.0 0.00 0.06 0.06 63 1018.6
20260505173114 64 165 0.0 5.0 0.00 0.06 0.06 64 1018.6
20260505172612 64 270 0.0 5.0 0.00 0.06 0.06 66 1018.6
20260505172108 62 225 0.0 3.0 0.00 0.06 0.06 67 1018.9
20260505171603 63 328 0.0 5.0 0.00 0.06 0.06 64 1018.7
20260505171100 64 270 0.0 5.0 0.00 0.06 0.06 66 1018.9
20260505170557 62 234 1.0 3.0 0.00 0.06 0.06 64 1018.5
20260505170053 63 243 1.0 5.0 0.00 0.06 0.06 66 1018.6
20260505165548 62 254 2.0 4.0 0.00 0.06 0.06 69 1018.5
20260505165045 64 251 3.0 5.0 0.00 0.06 0.06 69 1018.7
20260505164540 59 255 1.0 2.0 0.00 0.06 0.06 71 1018.6
20260505164038 62 246 2.0 4.0 0.00 0.06 0.06 72 1018.6
20260505163537 64 233 2.0 5.0 0.00 0.06 0.06 71 1018.4
20260505163033 62 225 2.0 2.0 0.00 0.06 0.06 71 1018.5
20260505162526 60 280 2.0 4.0 0.00 0.06 0.06 74 1018.4
20260505162024 58 235 0.0 3.0 0.00 0.06 0.06 76 1018.3
20260505161520 62 218 3.0 5.0 0.00 0.06 0.06 75 1018.2
20260505161017 59 0 0.0 2.0 0.00 0.06 0.06 76 1018.4
20260505160516 58 246 0.0 2.0 0.00 0.06 0.06 76 1018.4
20260505152946 59 251 1.0 3.0 0.00 0.06 0.06 83 1018.3
20260505152443 60 248 2.0 6.0 0.00 0.06 0.06 84 1018.3
20260505151938 59 278 0.0 4.0 0.00 0.06 0.06 85 1018.3
20260505151433 59 200 0.0 2.0 0.00 0.06 0.06 86 1018.6
20260505150931 59 270 0.0 3.0 0.00 0.06 0.06 86 1018.3
20260505150428 59 261 2.0 5.0 0.00 0.06 0.06 87 1018.3
20260505140358 57 221 0.0 0.0 0.00 0.06 0.06 95 1018.0
20260505124811 56 254 0.0 0.0 0.00 0.06 0.06 97 1017.4
20260505124308 56 6 0.0 0.0 0.00 0.06 0.06 97 1017.5
20260505123804 56 6 0.0 0.0 0.00 0.06 0.06 97 1017.6
20260505123301 55 6 0.0 0.0 0.00 0.06 0.06 97 1017.3
20260505122757 55 6 0.0 0.0 0.00 0.06 0.06 96 1017.5
20260505122255 55 6 0.0 0.0 0.00 0.06 0.06 97 1017.4
20260505121751 56 6 0.0 0.0 0.00 0.06 0.06 97 1017.4
20260505121248 56 6 0.0 0.0 0.00 0.06 0.06 97 1017.5
20260505120744 56 6 0.0 0.0 0.00 0.06 0.06 97 1017.6
20260505120240 55 6 0.0 0.0 0.00 0.06 0.06 97 1017.7
20260505115739 55 6 0.0 0.0 0.00 0.06 0.06 97 1017.7
20260505115237 55 6 0.0 0.0 0.00 0.06 0.06 97 1017.5
20260505114734 55 6 0.0 0.0 0.00 0.06 0.06 97 1017.6
20260505114230 55 6 0.0 1.0 0.00 0.06 0.06 97 1017.5
20260505113727 55 111 0.0 2.0 0.00 0.06 0.06 97 1017.5
20260505113223 55 90 0.0 0.0 0.02 0.06 0.06 97 1017.7
20260505112719 56 270 0.0 0.0 0.05 0.06 0.06 97 1017.6
20260505112217 56 278 0.0 2.0 0.12 0.06 0.06 97 1017.8
20260505111712 56 0 0.0 3.0 0.12 0.06 0.06 98 1017.9
20260505111208 57 270 1.0 3.0 0.02 0.04 0.04 98 1018.0
20260505110704 56 220 2.0 2.0 0.00 0.04 0.04 98 1017.9
20260505110201 56 220 0.0 0.0 0.00 0.04 0.04 98 1017.9
20260505102137 56 225 0.0 0.0 0.00 0.04 0.04 97 1017.4
20260505101636 57 117 0.0 2.0 0.02 0.04 0.04 98 1017.7
20260505101132 57 172 0.0 2.0 0.02 0.04 0.04 97 1017.5
20260505100628 56 203 0.0 0.0 0.05 0.03 0.03 97 1017.8
20260505100125 57 203 0.0 0.0 0.05 0.03 0.03 97 1017.7
20260505095621 57 203 0.0 0.0 0.00 0.02 0.02 97 1017.9
20260505095118 57 203 0.0 0.0 0.00 0.02 0.02 97 1017.7
20260505094614 57 240 0.0 1.0 0.00 0.02 0.02 97 1017.7
20260505094110 57 121 0.0 0.0 0.00 0.02 0.02 97 1017.9
20260505093607 57 121 0.0 0.0 0.00 0.02 0.02 97 1018.1
20260505093104 57 121 0.0 0.0 0.00 0.02 0.02 97 1017.8
20260505092601 57 121 0.0 0.0 0.00 0.02 0.02 97 1018.1
20260505092100 57 121 0.0 0.0 0.00 0.02 0.02 97 1018.1
20260505091556 57 162 0.0 0.0 0.00 0.02 0.02 97 1018.2
20260505091055 57 114 0.0 2.0 0.00 0.02 0.02 97 1018.1
20260505090552 57 96 0.0 0.0 0.00 0.02 0.02 97 1018.3
20260505090050 57 114 0.0 0.0 0.00 0.02 0.02 97 1018.4
20260505085547 57 262 0.0 0.0 0.00 0.02 0.02 96 1018.5
20260505085045 57 262 0.0 0.0 0.00 0.02 0.02 96 1018.5
20260505084543 57 262 0.0 0.0 0.00 0.02 0.02 96 1018.3
20260505084041 56 262 0.0 0.0 0.00 0.02 0.02 96 1018.5
20260505083538 56 262 0.0 0.0 0.00 0.02 0.02 96 1018.5
20260505083034 56 262 0.0 0.0 0.00 0.02 0.02 96 1018.5
20260505082530 57 262 0.0 0.0 0.00 0.02 0.02 97 1018.5
20260505082027 56 90 0.0 0.0 0.00 0.02 0.02 96 1018.6
20260505081524 56 90 0.0 0.0 0.00 0.02 0.02 97 1018.8
20260505081021 57 270 0.0 0.0 0.00 0.02 0.02 97 1018.9
20260505080517 57 279 0.0 0.0 0.00 0.02 0.02 97 1018.6
20260505080014 57 279 0.0 0.0 0.00 0.02 0.02 97 1018.9
20260505075510 57 279 0.0 0.0 0.00 0.02 0.02 97 1018.9
20260505075007 57 279 0.0 0.0 0.00 0.02 0.02 97 1018.8
20260505074504 57 279 0.0 0.0 0.00 0.02 0.02 97 1018.9
20260505074001 57 279 0.0 0.0 0.00 0.02 0.02 97 1018.8
20260505073458 57 279 0.0 0.0 0.00 0.02 0.02 96 1018.9
20260505072956 57 117 0.0 0.0 0.00 0.02 0.02 96 1019.0
20260505072452 57 90 0.0 0.0 0.02 0.02 0.02 96 1019.0
20260505071948 57 126 0.0 2.0 0.14 0.02 0.02 96 1018.9
20260505071444 57 90 0.0 0.0 0.12 0.02 0.02 96 1019.0
20260505070942 57 90 0.0 0.0 0.02 0.00 0.00 95 1019.0
20260505070439 57 90 0.0 0.0 0.05 0.00 0.00 95 1019.0
20260505065934 57 90 0.0 1.0 0.09 0.05 0.05 94 1018.9
20260505065431 58 173 0.0 1.0 0.12 0.04 0.04 94 1018.9
20260505064928 58 229 2.0 3.0 0.07 0.03 0.03 94 1018.9
20260505064425 58 188 0.0 2.0 0.07 0.02 0.02 93 1019.2
20260505063923 58 262 0.0 1.0 0.07 0.02 0.02 92 1019.1
20260505063419 59 270 0.0 0.0 0.07 0.01 0.01 91 1019.2
20260505062916 59 229 2.0 2.0 0.05 0.01 0.01 90 1019.0
20260505062414 59 246 0.0 2.0 0.00 0.00 0.00 89 1018.8
20260505061910 60 84 0.0 3.0 0.00 0.00 0.00 88 1018.7
20260505061408 60 235 0.0 3.0 0.00 0.00 0.00 86 1019.0
20260505060905 60 81 0.0 2.0 0.00 0.00 0.00 85 1019.0
20260505060402 60 270 0.0 2.0 0.00 0.00 0.00 84 1019.0
20260505055858 60 206 1.0 3.0 0.00 0.00 0.00 84 1019.1
20260505055354 60 221 0.0 0.0 0.00 0.00 0.00 84 1019.0
20260505054852 60 206 0.0 2.0 0.00 0.00 0.00 84 1019.3
20260505054349 60 225 0.0 0.0 0.00 0.00 0.00 84 1019.2
20260505053847 60 282 0.0 0.0 0.00 0.00 0.00 83 1019.1
20260505053344 61 0 0.0 0.0 0.00 0.00 0.00 83 1019.1
20260505052840 60 251 0.0 2.0 0.00 0.00 0.00 82 1019.0
20260505052337 60 201 0.0 0.0 0.00 0.00 0.00 83 1019.3
20260505051834 60 240 0.0 0.0 0.00 0.00 0.00 83 1019.0
20260505051332 60 216 0.0 2.0 0.00 0.00 0.00 83 1019.0
20260505050830 60 254 0.0 1.0 0.00 0.00 0.00 83 1019.1
20260505050328 60 209 0.0 1.0 0.00 0.00 0.00 83 1019.1
20260505041758 60 250 0.0 4.0 0.00 0.00 0.00 84 1019.5
20260505041255 60 243 0.0 3.0 0.00 0.00 0.00 84 1019.5
20260505040752 60 267 3.0 4.0 0.00 0.00 0.00 84 1019.4
20260505040250 60 254 1.0 3.0 0.00 0.00 0.00 84 1019.5
20260505035746 60 195 1.0 3.0 0.00 0.00 0.00 85 1019.2
20260505035242 60 203 0.0 3.0 0.00 0.00 0.00 85 1019.2
20260505034739 60 206 2.0 3.0 0.00 0.00 0.00 85 1019.2
20260505034236 60 258 3.0 3.0 0.00 0.00 0.00 84 1019.3
20260505033733 60 200 1.0 4.0 0.00 0.00 0.00 85 1019.0
20260505033231 60 212 0.0 3.0 0.00 0.00 0.00 84 1019.2
20260505032728 60 258 2.0 4.0 0.00 0.00 0.00 84 1019.0
20260505032224 60 235 0.0 4.0 0.00 0.00 0.00 83 1019.2
20260505031722 60 229 2.0 4.0 0.00 0.00 0.00 82 1019.0
20260505031218 60 250 0.0 3.0 0.00 0.00 0.00 83 1019.0
20260505030715 60 257 0.0 3.0 0.00 0.00 0.00 83 1018.8
20260505030211 60 225 2.0 4.0 0.00 0.00 0.00 84 1018.7
20260505025707 61 261 0.0 4.0 0.00 0.00 0.00 85 1018.8
20260505025206 61 236 0.0 3.0 0.00 0.00 0.00 82 1018.8
20260505024703 61 247 4.0 5.0 0.00 0.00 0.00 81 1018.7
20260505024200 61 266 2.0 7.0 0.00 0.00 0.00 80 1018.9
20260505023657 62 266 3.0 5.0 0.00 0.00 0.00 77 1018.8
20260505023154 62 206 3.0 7.0 0.00 0.00 0.00 77 1019.1
20260505022652 62 243 4.0 8.0 0.00 0.00 0.00 76 1018.7
20260505022149 62 205 3.0 9.0 0.00 0.00 0.00 76 1018.9
20260505021645 63 195 1.0 5.0 0.00 0.00 0.00 76 1018.6
20260505021142 63 291 1.0 6.0 0.00 0.00 0.00 75 1018.8
20260505020638 63 258 2.0 6.0 0.00 0.00 0.00 76 1018.6
20260505020134 63 222 3.0 6.0 0.00 0.00 0.00 75 1018.6
20260505015631 64 270 2.0 5.0 0.00 0.00 0.00 74 1018.6
20260505015128 64 204 0.0 5.0 0.00 0.00 0.00 72 1018.6
20260505014625 65 265 2.0 3.0 0.00 0.00 0.00 67 1018.7
20260505014122 64 265 0.0 6.0 0.00 0.00 0.00 68 1018.6
20260505013619 64 274 3.0 8.0 0.00 0.00 0.00 67 1018.4
20260505013116 64 289 3.0 8.0 0.00 0.00 0.00 68 1018.5
20260505012615 65 270 2.0 4.0 0.00 0.00 0.00 68 1018.7
20260505012111 64 235 4.0 5.0 0.00 0.00 0.00 68 1018.7
20260505011607 65 233 3.0 4.0 0.00 0.00 0.00 68 1018.8
20260505011104 65 270 0.0 4.0 0.00 0.00 0.00 68 1018.6
20260505010559 65 265 2.0 5.0 0.00 0.00 0.00 67 1018.8
20260505010056 65 8 0.0 4.0 0.00 0.00 0.00 67 1018.7
20260505005552 65 246 1.0 4.0 0.00 0.00 0.00 68 1018.8
20260505005049 65 270 0.0 6.0 0.00 0.00 0.00 66 1018.6
20260505004546 65 239 3.0 6.0 0.00 0.00 0.00 66 1018.7
20260505004043 65 254 0.0 5.0 0.00 0.00 0.00 66 1018.7
20260505003541 65 240 3.0 7.0 0.00 0.00 0.00 66 1018.7
20260505003038 65 255 0.0 5.0 0.00 0.00 0.00 65 1018.7
20260505002537 66 279 2.0 6.0 0.00 0.00 0.00 65 1018.7
20260505002032 66 227 3.0 10.0 0.00 0.00 0.00 65 1018.6
20260505001528 66 246 3.0 8.0 0.00 0.00 0.00 65 1018.8
20260505001026 67 246 2.0 12.0 0.00 0.00 0.00 63 1018.9
20260505000523 67 321 3.0 7.0 0.00 0.00 0.00 63 1018.7
20260505000020 67 273 4.0 7.0 0.00 0.00 0.00 62 1018.6
20260504235517 67 322 3.0 7.0 0.00 0.00 0.00 63 1018.6